{"data":{"norad_id":61854,"epoch":"2026-05-25T01:59:57.628896Z","epoch_age_seconds":64550,"freshness":"FRESH","line1":"1 61854U 24202K   26145.08330589 -.00001504  00000+0 -45149-4 0  9996","line2":"2 61854  43.0012 166.3351 0000939 267.4489  92.6255 15.27578015 87029","mean_motion":15.27578015,"eccentricity":9.39e-5,"inclination_deg":43.0012,"raan_deg":166.3351,"arg_perigee_deg":267.4489,"mean_anomaly_deg":92.6255,"bstar":-4.5149e-5,"rev_number":8702,"period_min":94.266871207884,"perigee_km":482.41077391765,"apogee_km":483.69930578273,"semimajor_km":6861.1920398502,"source":"CELESTRAK","updated_at":"2026-05-25T13:38:19.451471Z"}}